EW7554 Weather Reports


time (UTC)temp
F
wind
direction
speed
knots
gust
knots
rain 1hr
in
rain 24hr
in
rain mn
in
humidity
%
barometer
mb
20260505090047 41 290 2.6 10.4 0.00 0.00 0.00 59 1008.5
20260505084544 41 322 4.3 11.3 0.00 0.00 0.00 57 1008.3
20260505083041 42 325 5.2 12.2 0.00 0.00 0.00 56 1008.1
20260505081540 42 292 5.2 10.4 0.00 0.00 0.00 54 1007.9
20260505080038 42 300 5.2 13.0 0.00 0.00 0.00 53 1007.9
20260505074536 42 355 6.1 12.2 0.00 0.00 0.00 53 1007.7
20260505073034 42 298 4.3 10.4 0.00 0.00 0.00 54 1007.7
20260505071529 43 321 4.3 11.3 0.00 0.00 0.00 54 1007.8
20260505070031 43 266 3.5 10.4 0.00 0.00 0.00 54 1007.7
20260505064525 44 292 4.3 9.6 0.00 0.00 0.00 54 1007.8
20260505063024 44 292 3.5 9.6 0.00 0.00 0.00 52 1007.6
20260505061526 44 313 3.5 10.4 0.00 0.00 0.00 51 1007.8
20260505060020 44 310 3.5 10.4 0.00 0.00 0.00 52 1007.8
20260505054517 44 289 2.6 7.0 0.00 0.00 0.00 55 1007.6
20260505053016 44 297 3.5 7.0 0.00 0.00 0.00 56 1007.6
20260505051530 44 286 2.6 7.0 0.00 0.00 0.00 56 1007.3
20260505041503 44 268 2.6 6.1 0.00 0.00 0.00 53 1007.2
20260505040002 44 260 1.7 7.0 0.00 0.00 0.00 52 1007.1
20260505034601 44 247 1.7 6.1 0.00 0.00 0.00 51 1007.0
20260505033059 45 251 0.9 3.5 0.00 0.00 0.00 51 1007.0
20260505031559 45 253 0.9 4.3 0.00 0.00 0.00 49 1007.0
20260505030055 45 243 1.7 6.1 0.00 0.00 0.00 48 1006.9
20260505024554 46 265 0.9 3.5 0.00 0.00 0.00 48 1006.8
20260505023050 47 263 0.9 6.1 0.00 0.00 0.00 46 1006.6
20260505021551 47 292 3.5 7.0 0.00 0.00 0.00 45 1006.3
20260505020044 47 293 3.5 8.7 0.00 0.00 0.00 45 1006.2
20260505014543 48 312 4.3 14.8 0.00 0.00 0.00 42 1006.0
20260505013040 49 315 8.7 18.2 0.00 0.00 0.00 42 1005.9
20260505011537 49 286 6.1 13.0 0.00 0.00 0.00 42 1005.8
20260505010037 50 317 8.7 17.4 0.00 0.00 0.00 42 1005.2
20260505004529 51 309 9.6 19.1 0.00 0.00 0.00 43 1005.0
20260505003025 52 355 11.3 23.5 0.00 0.00 0.00 40 1004.8
20260505001523 52 328 8.7 19.1 0.00 0.00 0.00 40 1004.4
20260505000020 53 314 10.4 20.9 0.00 0.00 0.00 39 1004.1
20260504234521 53 296 10.4 20.9 0.00 0.00 0.00 38 1004.0
20260504233016 53 274 10.4 20.0 0.00 0.00 0.00 39 1004.0
20260504231513 54 304 9.6 18.2 0.00 0.00 0.00 38 1003.8
20260504230012 54 337 9.6 21.7 0.00 0.00 0.00 40 1003.6
20260504224509 54 269 8.7 25.2 0.00 0.00 0.00 40 1003.4
20260504223006 55 275 7.8 22.6 0.00 0.00 0.00 40 1003.2
20260504221502 56 273 8.7 21.7 0.00 0.00 0.00 39 1002.7
20260504220002 57 334 11.3 26.9 0.00 0.00 0.00 39 1002.5
20260504214559 56 301 10.4 21.7 0.00 0.00 0.00 40 1002.1
20260504213059 57 309 9.6 22.6 0.00 0.00 0.00 39 1002.1
20260504211556 58 328 10.4 22.6 0.00 0.00 0.00 38 1001.8
20260504210107 60 287 5.2 17.4 0.00 0.00 0.00 37 1001.7
20260504204605 58 304 7.8 20.0 0.00 0.00 0.00 38 1001.5
20260504203106 60 337 10.4 20.0 0.00 0.00 0.00 37 1001.5
20260504201555 59 302 12.2 22.6 0.00 0.00 0.00 38 1001.3
20260504200053 59 284 7.8 19.1 0.00 0.00 0.00 40 1001.1
20260504194601 59 297 11.3 22.6 0.00 0.00 0.00 38 1001.2
20260504193052 61 327 7.0 18.2 0.00 0.00 0.00 38 1000.9
20260504191551 60 329 7.8 21.7 0.00 0.00 0.00 40 1000.5
20260504190116 60 338 8.7 21.7 0.00 0.00 0.00 38 1000.6
20260504184551 59 294 11.3 21.7 0.00 0.00 0.00 37 1000.4
20260504183051 60 292 8.7 20.0 0.00 0.00 0.00 35 1000.1
20260504181550 59 292 13.9 22.6 0.00 0.00 0.00 35 1000.1
20260504180049 60 271 4.3 20.0 0.00 0.00 0.00 37 999.6
20260504174548 61 290 8.7 20.9 0.00 0.00 0.00 37 999.4
20260504173047 60 266 11.3 22.6 0.00 0.00 0.00 38 999.4
20260504171546 62 305 9.6 16.5 0.00 0.00 0.00 39 999.2